| time (UTC) | temp F | wind direction | speed MPH | gust MPH | rain 1hr in | rain 24hr in | rain mn in | humidity % | barometer mb |
| 20260901114534 | 74 | 306 | 4.0 | 5.0 | 0.00 | 0.00 | 0.00 | 81 | 1021.1 |
| 20260901113036 | 74 | 360 | 4.0 | 5.0 | 0.00 | 0.00 | 0.00 | 83 | 1021.2 |
| 20260901111535 | 74 | 25 | 3.0 | 6.0 | 0.00 | 0.00 | 0.00 | 84 | 1021.2 |
| 20260901110034 | 74 | 16 | 5.0 | 7.0 | 0.00 | 0.00 | 0.00 | 84 | 1021.0 |
| 20260901104534 | 75 | 26 | 3.0 | 4.0 | 0.00 | 0.00 | 0.00 | 83 | 1021.0 |
| 20260901103037 | 75 | 28 | 3.0 | 5.0 | 0.00 | 0.00 | 0.00 | 82 | 1020.8 |
| 20260901101554 | 75 | 45 | 4.0 | 6.0 | 0.00 | 0.00 | 0.00 | 80 | 1020.7 |
| 20260901100043 | 75 | 66 | 4.0 | 5.0 | 0.00 | 0.00 | 0.00 | 81 | 1020.7 |
| 20260901094541 | 75 | 61 | 3.0 | 8.0 | 0.00 | 0.00 | 0.00 | 82 | 1020.7 |
| 20260901093034 | 75 | 59 | 5.0 | 8.0 | 0.00 | 0.00 | 0.00 | 81 | 1020.6 |
| 20260901091548 | 75 | 61 | 4.0 | 6.0 | 0.00 | 0.00 | 0.00 | 81 | 1020.6 |
| 20260901090037 | 75 | 49 | 5.0 | 9.0 | 0.00 | 0.00 | 0.00 | 82 | 1020.4 |
| 20260901084540 | 76 | 47 | 6.0 | 10.0 | 0.00 | 0.00 | 0.00 | 81 | 1020.5 |
| 20260901083042 | 76 | 58 | 4.0 | 9.0 | 0.00 | 0.00 | 0.00 | 81 | 1020.5 |
| 20260901081535 | 76 | 42 | 6.0 | 9.0 | 0.00 | 0.00 | 0.00 | 81 | 1020.5 |
| 20260901080123 | 76 | 42 | 5.0 | 7.0 | 0.00 | 0.00 | 0.00 | 81 | 1020.4 |
| 20260901074532 | 76 | 46 | 5.0 | 9.0 | 0.00 | 0.00 | 0.00 | 81 | 1020.5 |
| 20260901073033 | 76 | 36 | 6.0 | 9.0 | 0.00 | 0.00 | 0.00 | 81 | 1020.6 |
| 20260901071539 | 76 | 36 | 6.0 | 8.0 | 0.00 | 0.00 | 0.00 | 83 | 1020.7 |
| 20260901070036 | 76 | 41 | 5.0 | 7.0 | 0.00 | 0.00 | 0.00 | 86 | 1020.8 |
| 20260901064534 | 76 | 48 | 4.0 | 7.0 | 0.00 | 0.00 | 0.00 | 87 | 1021.0 |
| 20260901063051 | 76 | 51 | 4.0 | 6.0 | 0.00 | 0.00 | 0.00 | 88 | 1021.0 |
| 20260901061543 | 76 | 48 | 4.0 | 5.0 | 0.00 | 0.00 | 0.00 | 87 | 1021.2 |
| 20260901060033 | 77 | 38 | 4.0 | 5.0 | 0.00 | 0.00 | 0.00 | 85 | 1021.2 |
| 20260901054542 | 77 | 48 | 4.0 | 6.0 | 0.00 | 0.00 | 0.00 | 86 | 1021.2 |
| 20260901053038 | 77 | 49 | 3.0 | 5.0 | 0.00 | 0.00 | 0.00 | 86 | 1021.4 |
| 20260901051533 | 77 | 86 | 3.0 | 4.0 | 0.00 | 0.00 | 0.00 | 86 | 1021.5 |
| 20260901050035 | 77 | 33 | 4.0 | 6.0 | 0.00 | 0.00 | 0.00 | 85 | 1021.5 |
| 20260901044540 | 77 | 31 | 3.0 | 8.0 | 0.00 | 0.00 | 0.00 | 84 | 1021.4 |
| 20260901043037 | 78 | 26 | 5.0 | 8.0 | 0.00 | 0.00 | 0.00 | 83 | 1021.1 |
| 20260901041535 | 78 | 30 | 5.0 | 8.0 | 0.00 | 0.00 | 0.00 | 82 | 1021.2 |
| 20260901040052 | 79 | 28 | 5.0 | 8.0 | 0.00 | 0.00 | 0.00 | 80 | 1021.1 |
| 20260901034535 | 79 | 38 | 4.0 | 6.0 | 0.00 | 0.00 | 0.00 | 79 | 1021.1 |
| 20260901033037 | 80 | 39 | 4.0 | 6.0 | 0.00 | 0.00 | 0.00 | 78 | 1021.0 |
| 20260901031535 | 80 | 37 | 4.0 | 6.0 | 0.00 | 0.00 | 0.00 | 77 | 1021.1 |
| 20260901030038 | 80 | 45 | 2.0 | 4.0 | 0.00 | 0.00 | 0.00 | 77 | 1021.0 |
| 20260901024546 | 81 | 36 | 3.0 | 5.0 | 0.00 | 0.00 | 0.00 | 76 | 1021.1 |
| 20260901023037 | 81 | 32 | 3.0 | 5.0 | 0.00 | 0.00 | 0.00 | 75 | 1021.1 |
| 20260901021547 | 80 | 39 | 3.0 | 5.0 | 0.00 | 0.00 | 0.00 | 77 | 1021.1 |
| 20260901020038 | 80 | 0 | 0.0 | 0.0 | 0.00 | 0.00 | 0.00 | 77 | 1020.8 |
| 20260901014539 | 80 | 46 | 2.0 | 4.0 | 0.00 | 0.00 | 0.00 | 77 | 1020.7 |
| 20260901013031 | 81 | 47 | 3.0 | 6.0 | 0.00 | 0.00 | 0.00 | 77 | 1020.4 |
| 20260901011536 | 80 | 44 | 3.0 | 5.0 | 0.00 | 0.00 | 0.00 | 76 | 1020.3 |
| 20260901010039 | 81 | 57 | 4.0 | 5.0 | 0.00 | 0.00 | 0.00 | 76 | 1020.0 |
| 20260901004535 | 81 | 45 | 3.0 | 6.0 | 0.00 | 0.00 | 0.00 | 75 | 1020.0 |
| 20260901003039 | 82 | 54 | 4.0 | 6.0 | 0.00 | 0.00 | 0.00 | 74 | 1019.9 |
| 20260901001539 | 83 | 49 | 4.0 | 7.0 | 0.00 | 0.00 | 0.00 | 72 | 1019.9 |
| 20260901000038 | 83 | 40 | 1.0 | 10.0 | 0.00 | 0.00 | 0.00 | 71 | 1019.8 |
| 20260831234534 | 84 | 49 | 4.0 | 6.0 | 0.00 | 0.00 | 0.00 | 69 | 1020.0 |
| 20260831233033 | 85 | 48 | 2.0 | 6.0 | 0.00 | 0.00 | 0.00 | 66 | 1020.0 |
| 20260831231554 | 86 | 47 | 3.0 | 11.0 | 0.00 | 0.00 | 0.00 | 63 | 1019.8 |
| 20260831230038 | 88 | 37 | 4.0 | 11.0 | 0.00 | 0.00 | 0.00 | 59 | 1019.9 |
| 20260831224554 | 88 | 34 | 3.0 | 13.0 | 0.00 | 0.00 | 0.00 | 58 | 1019.8 |
| 20260831223033 | 89 | 60 | 6.0 | 14.0 | 0.00 | 0.00 | 0.00 | 55 | 1019.9 |
| 20260831221547 | 91 | 55 | 4.0 | 8.0 | 0.00 | 0.00 | 0.00 | 43 | 1019.9 |
| 20260831220046 | 91 | 0 | 0.0 | 7.0 | 0.00 | 0.00 | 0.00 | 47 | 1019.9 |
| 20260831214543 | 90 | 98 | 2.0 | 4.0 | 0.00 | 0.00 | 0.00 | 47 | 1020.0 |
| 20260831213036 | 90 | 102 | 1.0 | 6.0 | 0.00 | 0.00 | 0.00 | 50 | 1020.5 |
| 20260831211537 | 90 | 117 | 5.0 | 9.0 | 0.00 | 0.00 | 0.00 | 48 | 1020.4 |
| 20260831210035 | 91 | 177 | 2.0 | 7.0 | 0.00 | 0.00 | 0.00 | 49 | 1020.1 |
| 20260831204539 | 91 | 184 | 3.0 | 7.0 | 0.00 | 0.00 | 0.00 | 51 | 1020.1 |
| 20260831203039 | 91 | 73 | 1.0 | 4.0 | 0.00 | 0.00 | 0.00 | 49 | 1020.3 |
| 20260831201534 | 90 | 55 | 1.0 | 9.0 | 0.00 | 0.00 | 0.00 | 53 | 1020.5 |
| 20260831200034 | 90 | 0 | 0.0 | 4.0 | 0.00 | 0.00 | 0.00 | 54 | 1020.6 |
| 20260831194548 | 89 | 260 | 3.0 | 6.0 | 0.00 | 0.00 | 0.00 | 57 | 1020.8 |
| 20260831193046 | 88 | 0 | 1.0 | 5.0 | 0.00 | 0.00 | 0.00 | 57 | 1020.8 |
| 20260831191546 | 90 | 133 | 0.0 | 3.0 | 0.00 | 0.00 | 0.00 | 56 | 1021.0 |
| 20260831190039 | 90 | 76 | 1.0 | 5.0 | 0.00 | 0.00 | 0.00 | 56 | 1021.2 |
| 20260831184538 | 90 | 184 | 1.0 | 5.0 | 0.00 | 0.00 | 0.00 | 56 | 1021.4 |
| 20260831183033 | 89 | 273 | 2.0 | 6.0 | 0.00 | 0.00 | 0.00 | 57 | 1021.6 |
| 20260831181536 | 89 | 210 | 2.0 | 7.0 | 0.00 | 0.00 | 0.00 | 57 | 1021.7 |
| 20260831180040 | 88 | 189 | 2.0 | 7.0 | 0.00 | 0.00 | 0.00 | 60 | 1021.9 |
| 20260831174535 | 87 | 205 | 2.0 | 6.0 | 0.00 | 0.00 | 0.00 | 61 | 1022.0 |
| 20260831173041 | 85 | 198 | 4.0 | 7.0 | 0.00 | 0.00 | 0.00 | 67 | 1022.1 |
| 20260831171537 | 85 | 0 | 1.0 | 6.0 | 0.00 | 0.00 | 0.00 | 66 | 1022.5 |
| 20260831170033 | 84 | 42 | 2.0 | 6.0 | 0.00 | 0.00 | 0.00 | 70 | 1022.5 |
| 20260831164535 | 84 | 22 | 3.0 | 8.0 | 0.00 | 0.00 | 0.00 | 70 | 1022.5 |
| 20260831163037 | 85 | 265 | 4.0 | 7.0 | 0.00 | 0.00 | 0.00 | 70 | 1022.5 |
| 20260831161535 | 83 | 215 | 1.0 | 4.0 | 0.00 | 0.00 | 0.00 | 74 | 1022.6 |
| 20260831160041 | 82 | 14 | 3.0 | 8.0 | 0.00 | 0.00 | 0.00 | 75 | 1022.7 |
| 20260831154620 | 83 | 264 | 5.0 | 10.0 | 0.00 | 0.00 | 0.00 | 75 | 1022.9 |
| 20260831153037 | 82 | 317 | 3.0 | 8.0 | 0.00 | 0.00 | 0.00 | 76 | 1023.0 |
| 20260831151547 | 81 | 237 | 1.0 | 6.0 | 0.00 | 0.00 | 0.00 | 79 | 1023.0 |
| 20260831150035 | 80 | 339 | 4.0 | 8.0 | 0.00 | 0.00 | 0.00 | 79 | 1023.1 |
| 20260831144536 | 81 | 308 | 3.0 | 7.0 | 0.00 | 0.00 | 0.00 | 79 | 1023.1 |
| 20260831143038 | 80 | 0 | 0.0 | 5.0 | 0.00 | 0.00 | 0.00 | 81 | 1023.0 |
| 20260831141534 | 79 | 271 | 0.0 | 7.0 | 0.00 | 0.00 | 0.00 | 83 | 1022.9 |
| 20260831140033 | 78 | 259 | 2.0 | 6.0 | 0.00 | 0.00 | 0.00 | 84 | 1022.8 |
| 20260831134542 | 78 | 0 | 1.0 | 5.0 | 0.00 | 0.00 | 0.00 | 85 | 1022.8 |
| 20260831133039 | 77 | 234 | 1.0 | 4.0 | 0.00 | 0.00 | 0.00 | 87 | 1022.7 |
| 20260831131540 | 76 | 250 | 1.0 | 4.0 | 0.00 | 0.00 | 0.00 | 88 | 1022.7 |
| 20260831130040 | 75 | 0 | 0.0 | 2.0 | 0.00 | 0.00 | 0.00 | 92 | 1022.8 |
| 20260831124545 | 73 | 0 | 0.0 | 2.0 | 0.00 | 0.00 | 0.00 | 93 | 1022.8 |
| 20260831123034 | 72 | 42 | 1.0 | 4.0 | 0.00 | 0.00 | 0.00 | 93 | 1022.8 |
| 20260831121544 | 72 | 30 | 2.0 | 3.0 | 0.00 | 0.00 | 0.00 | 94 | 1022.7 |
| 20260831120039 | 72 | 14 | 1.0 | 4.0 | 0.00 | 0.00 | 0.00 | 93 | 1022.7 |